Hourly Data Report for October 25, 2016

All times are specified in Local Standard Time (LST). Add 1 hour to adjust for Daylight Saving Time where and when it is observed.

FREDERICTON
NEW BRUNSWICK

45°52'08.000" N
66°32'14.000" W
20.70 m
8101505
71700
YFC

Download Data

Hourly Data (October 2016)
Hourly Data Report for October 25, 2016
Temp Definition
°C
Dew Point Temp Definition
°C
Rel Hum Definition
%
Wind Dir Definition
10's deg

Wind Spd Definition
km/h
Visibility Definition
km
Stn Press Definition
kPa
Hmdx Definition


Wind Chill Definition


Weather Definition


TIME
00:00 Legend Double Dagger 2.3 -1.6 75 23 9 16.1 100.40     LegendNANA
01:00 Legend Double Dagger 3.3 -1.5 71 24 13 16.1 100.42     LegendNANA
02:00 Legend Double Dagger 2.7 -1.2 76 23 11 16.1 100.43     LegendNANA
03:00 Legend Double Dagger 2.8 -1.3 75 24 15 16.1 100.44     LegendNANA
04:00 Legend Double Dagger 2.9 -1.1 75 25 11 16.1 100.45     LegendNANA
05:00 Legend Double Dagger 2.6 -1.2 76 25 15 16.1 100.49     LegendNANA
06:00 Legend Double Dagger 2.3 -1.3 77 23 11 16.1 100.54     LegendNANA
07:00 Legend Double Dagger 2.1 -1.1 79 24 5 16.1 100.61     LegendNANA
08:00 Legend Double Dagger 3.0 -0.7 76 24 13 16.1 100.67     LegendNANA
09:00 Legend Double Dagger 3.8 -0.3 75 24 15 16.1 100.71     LegendNANA
10:00 Legend Double Dagger 4.5 -0.2 72 29 17 16.1 100.73     LegendNANA
11:00 Legend Double Dagger 4.9 -0.1 70 28 15 16.1 100.74     LegendNANA
12:00 Legend Double Dagger 5.5 -0.2 67 26 17 16.1 100.75     LegendNANA
13:00 Legend Double Dagger 6.7 0.0 62 26 18 16.1 100.75     LegendNANA
14:00 Legend Double Dagger 5.9 1.9 76 31 18 16.1 100.79     Rain
15:00 Legend Double Dagger 5.8 1.6 75 29 13 16.1 100.85     Rain
16:00 Legend Double Dagger 5.2 3.0 86 29 9 16.1 100.91     Rain
17:00 Legend Double Dagger 4.6 3.0 89 25 11 16.1 100.96     Rain
18:00 Legend Double Dagger 4.3 2.8 90 27 9 16.1 101.05     Rain
19:00 Legend Double Dagger 4.2 2.7 90 28 13 16.1 101.12     Rain
20:00 Legend Double Dagger 4.0 3.0 93 30 11 16.1 101.20     Rain
21:00 Legend Double Dagger 4.0 3.2 95 32 11 16.1 101.26     Rain
22:00 Legend Double Dagger 4.2 3.3 94 32 17 16.1 101.34     Rain
23:00 Legend Double Dagger 4.4 3.6 94 33 13 16.1 101.40     Rain

Notes on Data Quality.

Legend

  • E = Estimated
  • M = Missing
  • NA = Not Available
  • ‡ = Partner data that is not subject to review by the National Climate Archives
Date modified: